Macon, GA

10:31 AM EDT on March 26, 2017 (GMT -0400)
Middle Georgia Regional

Weather History for KMCN - May, 2013

Change the Weather History Date:

Tuesday, May 21, 2013

  Actual Average Record
Temperature  
Mean Temperature 76 °F 73 °F  
Max Temperature 90 °F 86 °F 97 °F (1962)
Min Temperature 62 °F 61 °F 44 °F (2002)
Degree Days  
Heating Degree Days 0 0  
Month to date heating degree days 40 11  
Since 1 July heating degree days 2275 2318  
Cooling Degree Days 11 9  
Month to date cooling degree days 69 128  
Year to date cooling degree days 127 212  
Growing Degree Days 26 (Base 50)    
Moisture  
Dew Point 65 °F    
Average Humidity 72    
Maximum Humidity 100    
Minimum Humidity 44    
Precipitation  
Precipitation 0.00 in 0.09 in 1.74 in (1942)
Month to date precipitation 2.77 1.69  
Year to date precipitation 27.51 17.80  
Sea Level Pressure  
Sea Level Pressure 30.00 in    
Wind  
Wind Speed 3 mph (SSE)    
Max Wind Speed 23 mph    
Max Gust Speed 30 mph    
Visibility 4 miles    
Events Fog    
T = Trace of Precipitation, MM = Missing Value Source: NWS Daily Summary

Daily Weather History Graph

Daily Weather History Graph

Search for Another Location

Airport or City:

Trip Planner

Search our weather history database for the weather conditions in past years. The results will help you decide how hot, cold, wet, or windy it might be!

Date:

Astronomy

May. 21, 2013 Rise Set
Actual Time 6:32 AM EDT 8:30 PM EDT
Civil Twilight 6:04 AM EDT 8:58 PM EDT
Nautical Twilight 5:31 AM EDT 9:31 PM EDT
Astronomical Twilight 4:55 AM EDT 10:07 PM EDT
Moon 4:54 PM EDT (5/21) 3:46 AM EDT (5/21)
Length of Visible Light 14h 53m
Length of Day
13h 58m
Waxing Gibbous, 84% of the Moon is Illuminated
May 21
Waxing Gibbous
May 25
Full
May 31
Last Quarter
Jun 8
New
Jun 16
First Quarter

Hourly Weather History & Observations

Time (EDT) Temp. Heat Index Dew Point Humidity Pressure Visibility Wind Dir Wind Speed Gust Speed Precip Events Conditions
12:53 AM 66.0 °F - 66.0 °F 100% 30.00 in 1.8 mi Calm Calm - N/A   Clear
1:17 AM 66.2 °F - 66.2 °F 100% 30.01 in 2.0 mi Calm Calm - N/A   Clear
1:27 AM 66.2 °F - 66.2 °F 100% 30.01 in 5.0 mi Calm Calm - N/A   Clear
1:32 AM 66.2 °F - 66.2 °F 100% 30.02 in 1.0 mi Calm Calm - N/A   Mist
1:35 AM 66.2 °F - 66.2 °F 100% 30.02 in 0.2 mi Calm Calm - N/A Fog Fog
1:50 AM 66.2 °F - 66.2 °F 100% 30.01 in 1.0 mi Calm Calm - N/A   Mist
1:53 AM 66.0 °F - 66.0 °F 100% 30.00 in 4.0 mi Calm Calm - N/A   Scattered Clouds
2:53 AM 66.0 °F - 66.0 °F 100% 30.00 in 6.0 mi Calm Calm - N/A   Clear
2:59 AM 66.2 °F - 66.2 °F 100% 30.01 in 1.8 mi Calm Calm - N/A   Clear
3:11 AM 64.4 °F - 64.4 °F 100% 30.00 in 0.8 mi Calm Calm - N/A   Clear
3:29 AM 64.4 °F - 64.4 °F 100% 30.01 in 0.8 mi Calm Calm - N/A   Mist
3:43 AM 64.4 °F - 64.4 °F 100% 30.01 in 0.2 mi Calm Calm - N/A Fog Fog
3:53 AM 64.9 °F - 64.9 °F 100% 30.00 in 0.2 mi Calm Calm - N/A Fog Fog
4:35 AM 62.6 °F - 62.6 °F 100% 30.01 in 0.8 mi ESE 3.5 mph - N/A   Mist
4:53 AM 64.0 °F - 64.0 °F 100% 30.00 in 0.5 mi Calm Calm - N/A Fog Fog
4:57 AM 64.4 °F - 64.4 °F 100% 30.01 in 0.2 mi Calm Calm - N/A Fog Fog
5:11 AM 64.4 °F - 64.4 °F 100% 30.01 in 1.0 mi Calm Calm - N/A   Mist
5:14 AM 64.4 °F - 64.4 °F 100% 30.01 in 3.0 mi Calm Calm - N/A   Mostly Cloudy
5:21 AM 64.4 °F - 64.4 °F 100% 30.01 in 2.0 mi Calm Calm - N/A   Scattered Clouds
5:25 AM 64.4 °F - 64.4 °F 100% 30.01 in 1.0 mi Calm Calm - N/A   Mist
5:29 AM 64.4 °F - 64.4 °F 100% 30.01 in 0.5 mi Calm Calm - N/A Fog Fog
5:44 AM 64.4 °F - 64.4 °F 100% 30.01 in 0.2 mi Calm Calm - N/A Fog Fog
5:53 AM 64.0 °F - 64.0 °F 100% 30.00 in 0.2 mi Calm Calm - N/A Fog Fog
6:04 AM 62.6 °F - 62.6 °F 100% 30.01 in 1.0 mi Calm Calm - N/A   Mist
6:13 AM 62.6 °F - 62.6 °F 100% 30.01 in 0.2 mi Calm Calm - N/A Fog Fog
6:38 AM 62.6 °F - 62.6 °F 100% 30.02 in 0.2 mi Calm Calm - N/A Fog Fog
6:53 AM 62.1 °F - 62.1 °F 100% 30.01 in 0.2 mi Calm Calm - N/A Fog Fog
7:31 AM 64.4 °F - 64.4 °F 100% 30.03 in 1.0 mi Calm Calm - N/A   Mist
7:37 AM 66.2 °F - 66.2 °F 100% 30.03 in 0.8 mi Calm Calm - N/A   Mist
7:45 AM 66.2 °F - 66.2 °F 100% 30.03 in 0.2 mi Calm Calm - N/A Fog Fog
7:53 AM 66.9 °F - 66.9 °F 100% 30.02 in 0.2 mi Calm Calm - N/A Fog Fog
8:04 AM 66.2 °F - 66.2 °F 100% 30.03 in 1.0 mi Calm Calm - N/A   Mist
8:42 AM 69.8 °F - 69.8 °F 100% 30.04 in 1.0 mi Calm Calm - N/A   Mist
8:53 AM 71.1 °F - 69.1 °F 93% 30.04 in 6.0 mi Calm Calm - N/A   Partly Cloudy
9:53 AM 77.0 °F - 70.0 °F 79% 30.04 in 10.0 mi Calm Calm - N/A   Clear
10:53 AM 81.0 °F 84.4 °F 70.0 °F 69% 30.03 in 10.0 mi Calm Calm - N/A   Clear
11:53 AM 84.9 °F 88.8 °F 69.1 °F 59% 30.03 in 10.0 mi Variable 4.6 mph - N/A   Clear
12:53 PM 87.1 °F 89.9 °F 66.9 °F 51% 30.02 in 10.0 mi Variable 3.5 mph - N/A   Mostly Cloudy
1:53 PM 88.0 °F 90.3 °F 66.0 °F 48% 30.00 in 10.0 mi SSW 5.8 mph - N/A   Clear
2:53 PM 89.1 °F 90.3 °F 64.0 °F 43% 29.97 in 10.0 mi Calm Calm - N/A   Clear
3:53 PM 89.1 °F 90.3 °F 64.0 °F 43% 29.94 in 10.0 mi Variable 3.5 mph - N/A   Clear
4:53 PM 89.1 °F 90.3 °F 64.0 °F 43% 29.93 in 10.0 mi Variable 4.6 mph - N/A   Clear
5:53 PM 88.0 °F 89.6 °F 64.9 °F 46% 29.91 in 10.0 mi SSE 5.8 mph - N/A   Partly Cloudy
6:53 PM 87.1 °F 88.9 °F 64.9 °F 48% 29.91 in 10.0 mi SE 3.5 mph - N/A   Clear
7:53 PM 82.9 °F 86.5 °F 69.1 °F 63% 29.92 in 10.0 mi East 6.9 mph - N/A   Partly Cloudy
8:53 PM 78.1 °F - 64.9 °F 64% 29.96 in 10.0 mi ESE 17.3 mph 29.9 mph N/A   Partly Cloudy
9:34 PM 69.8 °F - 66.2 °F 88% 29.99 in 10.0 mi East 13.8 mph 20.7 mph N/A   Mostly Cloudy
9:46 PM 69.8 °F - 66.2 °F 88% 29.99 in 10.0 mi SSW 4.6 mph - N/A   Partly Cloudy
9:53 PM 70.0 °F - 66.0 °F 87% 29.98 in 10.0 mi SSE 4.6 mph - N/A   Partly Cloudy
10:53 PM 72.0 °F - 64.0 °F 76% 29.96 in 10.0 mi SSW 4.6 mph - N/A   Clear
11:53 PM 70.0 °F - 64.9 °F 84% 29.97 in 10.0 mi Calm Calm - N/A   Clear